GFSSW_sfc_temp_273.txt.gz
Temp
61 61 61 61 60 60 60 60 60 60 61 61 61 61 61 60 60 62 68 78 75 71 74 79 81 80 80 77 77 75 70 66 69 67 74 79 77 85 88 84 87 88 86 85 82
61 61 61 61 60 60 60 60 60 60 60 61 61 61 60 60 61 64 76 72 72 73 81 80 76 78 76 75 76 75 67 68 72 73 74 78 76 80 81 84 84 87 86 82 81
60 60 60 60 60 60 59 59 60 60 60 60 60 60 60 61 68 77 74 72 73 78 83 81 80 78 73 74 73 71 69 70 73 75 77 77 77 81 80 80 84 85 88 82 80
60 60 60 60 60 60 59 59 59 60 60 60 60 60 60 64 67 79 74 73 73 81 82 79 77 73 71 69 73 67 71 73 76 77 75 76 78 78 80 84 91 89 88 87 81
59 59 59 59 59 59 59 59 59 59 59 59 60 60 63 67 72 77 75 74 76 79 79 76 74 71 70 71 70 69 72 73 76 76 76 76 77 77 80 88 89 89 87 88 87
58 58 58 59 59 58 58 58 58 58 58 58 60 60 67 63 79 77 76 76 80 79 76 77 76 75 72 71 71 74 72 74 74 76 76 75 78 75 83 85 87 86 87 86 86
58 58 58 58 58 58 58 58 57 57 58 59 61 64 65 71 78 78 78 78 79 80 74 77 78 75 74 69 73 71 68 71 73 76 76 76 73 74 82 82 83 85 86 87 86
57 57 57 58 58 58 58 57 57 58 59 60 62 64 66 76 77 75 76 76 78 79 80 80 79 76 74 74 70 68 67 64 71 72 74 74 68 78 80 79 82 82 84 85 88
57 57 57 57 57 58 57 56 60 60 60 62 62 64 66 75 73 79 80 78 77 78 80 80 79 72 72 67 64 63 61 60 65 71 72 72 68 78 81 78 79 82 83 82 84
57 57 57 57 57 57 56 58 61 62 64 65 67 61 70 73 78 76 77 80 77 75 74 73 72 68 66 65 57 58 58 60 61 68 70 68 69 76 78 77 78 79 79 80 80
57 57 56 57 57 56 57 63 67 66 63 68 70 68 72 81 82 78 77 77 77 73 66 68 65 61 65 66 66 63 60 59 62 68 65 66 67 73 78 77 79 77 75 75 75
57 57 57 56 56 55 58 68 65 66 59 68 68 69 73 76 70 75 80 71 69 65 66 64 60 69 69 64 62 61 58 60 65 66 66 66 67 73 75 71 69 69 69 69 71
56 56 56 56 55 60 63 67 68 66 61 66 70 69 72 73 66 69 75 72 69 63 64 62 66 68 65 62 60 60 59 60 61 62 66 64 64 67 71 69 68 67 67 68 67
56 56 56 54 62 60 68 66 67 65 58 62 68 72 74 71 65 75 78 75 68 65 64 64 69 65 64 63 64 58 66 65 62 60 58 63 56 64 69 66 65 65 65 66 67
56 56 55 54 60 68 70 66 67 66 44 64 68 80 74 68 69 70 76 74 66 64 65 63 63 62 61 64 66 63 67 64 63 60 58 58 58 64 64 62 60 61 63 65 67
56 55 54 59 58 68 66 64 68 56 42 58 66 64 65 67 66 69 68 73 69 66 65 64 68 66 64 64 66 66 63 60 58 59 51 59 58 59 58 53 58 62 64 65 67
55 55 55 60 64 69 64 69 55 47 59 53 55 61 60 58 62 62 58 57 57 56 57 60 58 64 64 62 64 63 60 51 48 48 49 56 54 55 54 57 58 59 62 65 68
52 52 57 64 67 63 69 62 45 50 51 59 58 58 54 58 60 59 56 54 58 56 54 51 47 57 62 58 56 56 57 52 41 45 51 54 49 51 57 60 61 63 64 65 66
51 60 66 69 65 65 66 50 47 50 54 53 57 51 51 56 57 57 54 53 55 56 50 49 47 59 60 61 59 55 53 55 48 47 48 51 48 55 59 58 59 60 62 64 66
52 55 65 67 62 66 58 46 51 56 56 56 48 52 47 51 52 53 52 56 55 57 60 50 45 53 57 61 60 55 57 47 49 38 39 45 46 51 53 56 59 61 62 63 66
55 58 68 65 66 60 49 49 52 59 58 53 50 49 49 47 49 50 51 55 57 56 59 54 49 49 54 51 48 51 51 50 48 46 41 41 47 54 53 55 54 56 59 61 64
52 55 65 64 56 51 50 49 50 55 57 55 54 51 48 48 47 48 48 51 56 57 51 52 46 39 43 53 55 53 51 52 44 42 45 44 45 55 54 55 56 57 58 58 58
48 49 63 63 48 47 48 49 53 52 52 52 50 52 51 48 43 47 49 55 56 55 51 52 46 40 41 48 51 48 49 48 46 46 44 40 45 53 55 54 54 54 56 58 59
52 49 55 53 49 46 43 45 47 54 51 51 50 51 49 47 49 46 48 53 55 55 54 54 46 44 39 42 47 43 46 48 45 41 43 44 46 51 52 51 52 54 56 58 58
49 46 45 46 47 45 44 44 44 45 51 51 48 47 45 43 45 44 47 50 53 53 51 51 44 44 45 45 46 45 45 47 44 46 40 46 46 51 51 51 52 54 55 56 56
49 48 48 46 43 44 43 43 43 45 47 46 45 46 47 43 45 43 45 46 46 52 48 48 43 44 41 44 45 42 46 46 47 47 46 47 46 53 52 54 54 54 54 55 55
48 48 49 42 42 44 44 42 43 46 49 50 48 46 44 47 50 52 52 51 49 46 45 45 44 41 36 41 41 37 44 46 47 49 49 44 51 51 50 51 52 53 54 54 53

GFSSW_sfc_temp_276.txt.gz
Temp
61 61 61 61 61 61 61 61 61 61 61 61 62 62 61 61 61 72 80 84 83 72 73 90 90 91 92 90 90 90 80 78 81 80 83 88 86 93 96 93 95 95 93 94 93
61 61 61 61 61 60 60 60 60 61 61 61 61 61 61 61 75 81 81 73 74 73 90 88 85 88 86 87 87 84 80 81 86 86 84 87 86 88 89 91 93 94 97 92 92
60 61 61 61 61 60 60 60 60 60 61 61 61 61 61 65 77 87 75 73 72 77 95 94 92 89 84 87 85 84 79 86 83 86 87 86 86 90 88 87 94 90 94 94 92
59 60 60 60 60 60 59 59 60 60 60 60 60 61 61 75 75 88 74 73 73 90 92 89 88 83 82 79 87 78 84 85 85 86 85 83 88 85 89 91 97 97 98 97 92
59 59 59 59 59 59 59 59 59 59 59 59 60 61 68 77 83 88 75 76 87 90 88 87 84 84 79 83 83 79 83 84 86 86 86 87 84 86 88 95 98 97 97 97 98
59 59 58 59 59 59 58 58 58 58 58 59 60 61 74 73 88 89 88 86 90 90 89 90 86 88 82 81 80 83 84 83 84 85 85 82 85 86 90 94 94 95 96 98 96
58 58 58 58 58 58 58 58 57 58 58 59 61 70 75 80 89 89 89 88 92 91 86 90 89 83 85 79 85 82 76 81 82 84 83 86 80 82 91 91 91 93 95 96 97
58 58 58 58 58 58 58 58 58 60 59 60 62 76 75 86 90 87 90 86 90 90 88 90 90 86 83 84 79 77 78 73 83 82 83 82 75 87 90 88 90 93 94 95 96
58 58 57 58 58 58 57 57 61 61 61 63 72 76 76 76 80 89 90 85 86 87 87 87 87 82 81 76 74 74 70 72 75 81 81 79 77 86 89 87 87 91 93 93 95
58 57 57 57 57 57 56 57 61 64 70 75 77 70 80 79 84 86 90 89 83 83 81 81 81 76 77 75 66 70 69 72 71 77 78 77 77 84 88 86 87 88 90 91 91
58 57 57 57 57 56 63 75 76 73 77 74 76 75 79 87 90 85 86 84 85 80 72 77 72 68 74 76 77 72 70 69 74 77 73 75 77 81 86 87 87 88 87 86 86
58 57 57 56 56 57 73 77 71 73 68 80 78 78 81 83 75 81 87 78 76 71 76 71 67 77 78 76 72 70 68 69 73 76 74 75 74 81 84 83 83 82 81 81 84
57 57 57 56 56 67 79 74 80 76 70 75 79 78 79 80 74 76 83 80 75 72 73 69 73 78 74 71 68 70 68 69 69 73 75 73 71 76 79 79 79 80 80 80 80
56 56 56 54 66 79 80 81 82 78 67 67 74 78 81 80 72 82 85 81 77 72 74 73 79 72 71 70 72 65 73 72 69 67 64 74 64 72 76 75 75 76 78 79 80
56 56 56 53 75 79 79 82 81 75 53 69 73 87 82 75 76 76 83 80 71 72 74 69 71 71 68 70 74 68 76 72 71 68 68 67 65 74 75 71 70 73 75 77 80
56 56 54 69 79 83 83 81 77 63 50 63 71 71 72 75 73 76 76 81 79 74 74 74 77 73 72 72 74 74 71 70 70 68 58 65 65 69 72 70 68 71 73 75 78
55 55 58 74 74 83 81 79 63 57 66 59 61 67 68 66 68 69 67 68 66 61 62 69 69 71 71 69 72 71 66 56 54 56 54 70 66 69 65 67 68 68 71 74 77
53 52 61 77 83 81 79 71 53 57 58 65 64 65 60 65 65 66 63 64 67 65 65 61 54 65 68 66 66 68 66 58 48 52 59 65 58 64 67 69 70 70 72 74 76
52 78 82 81 80 79 74 62 57 58 61 60 64 58 58 62 63 63 62 61 63 66 58 59 57 65 65 68 66 64 59 65 58 61 56 63 60 63 66 66 67 69 70 71 74
65 73 77 81 79 77 71 53 59 63 63 63 54 58 53 58 58 59 59 63 60 64 67 60 52 61 63 67 67 63 65 53 57 42 42 55 57 59 61 63 67 67 68 70 73
67 71 77 80 79 76 63 58 59 64 64 58 56 55 56 54 56 56 57 61 62 62 65 61 56 57 61 60 60 61 60 59 57 52 43 43 48 61 60 63 63 65 66 68 71
67 68 77 78 69 69 62 58 52 61 63 60 60 58 54 55 53 53 53 57 63 63 57 61 55 51 54 61 62 61 59 59 50 47 54 53 49 65 63 64 64 64 65 68 70
63 67 77 76 61 60 59 58 59 58 58 58 56 58 58 54 49 53 54 60 62 60 58 60 53 47 50 55 58 55 59 57 56 56 49 43 50 62 62 62 63 63 65 67 67
63 62 69 68 65 56 54 54 54 60 57 58 57 58 56 54 56 52 54 58 61 61 54 58 54 49 46 48 54 49 53 56 54 48 49 50 50 55 60 59 62 63 64 65 66
66 58 56 58 60 56 55 53 52 52 58 59 55 54 52 49 52 52 54 56 60 57 59 57 49 52 54 53 53 52 52 54 51 54 48 53 53 58 61 61 61 62 63 64 65
59 60 61 61 54 54 49 53 50 52 53 52 52 53 54 50 51 48 53 54 53 58 57 56 48 51 49 52 51 49 53 54 54 54 54 54 53 64 62 63 62 62 62 62 64
63 62 59 51 54 54 56 52 50 52 55 56 54 52 51 54 57 59 59 57 56 53 53 52 51 47 43 47 49 43 51 53 54 56 54 49 57 60 59 59 60 61 62 62 63

GFSSW_sfc_temp_279.txt.gz
Temp
62 62 61 61 61 61 61 61 61 61 62 62 62 62 62 62 61 74 81 87 90 73 73 95 95 96 98 95 98 96 83 81 85 87 90 97 91 100 101 96 99 100 96 98 99
60 61 61 61 61 61 60 61 61 61 61 61 62 62 62 62 75 82 88 75 75 75 91 92 89 93 91 92 93 89 83 84 94 94 91 94 92 95 93 95 97 98 100 96 99
60 60 61 60 61 60 60 60 60 61 61 61 61 61 62 66 80 90 75 74 75 79 98 98 97 93 88 93 92 90 82 92 92 92 94 93 93 96 92 91 97 97 99 100 96
60 60 60 60 60 60 59 59 60 61 61 61 61 61 62 79 76 91 75 74 74 91 96 96 94 87 86 86 93 84 90 91 93 92 90 89 94 92 93 94 103 102 101 102 97
60 60 60 59 59 59 59 59 59 60 60 60 60 61 70 80 86 88 75 77 88 91 93 92 89 88 84 89 90 87 89 92 92 92 91 93 90 90 92 99 102 102 101 101 102
59 59 59 59 59 59 59 58 58 58 59 60 60 60 76 76 97 96 94 91 94 93 93 94 91 94 89 88 87 91 90 90 91 91 91 87 88 91 93 99 98 98 99 102 103
58 58 59 59 58 59 59 58 58 58 59 60 61 71 81 84 96 97 96 95 98 96 92 96 97 90 89 84 92 89 83 87 88 89 88 90 83 85 95 98 94 96 99 101 102
58 58 58 58 58 58 59 58 58 61 60 61 62 77 79 95 98 94 97 95 98 98 96 97 96 90 88 92 86 83 83 76 88 88 89 87 77 90 96 94 92 95 98 99 101
58 58 58 58 58 58 58 57 62 61 61 62 72 78 81 80 87 94 96 91 92 94 94 92 91 85 87 80 77 80 73 76 82 88 86 84 79 91 96 92 90 94 97 98 99
58 58 57 58 58 58 57 58 62 62 70 80 85 77 86 84 89 92 96 94 88 87 85 84 84 79 81 78 68 74 75 78 78 84 84 82 81 89 92 91 90 92 95 97 97
58 57 57 57 57 57 62 75 78 75 85 80 81 81 84 91 94 89 93 89 88 84 75 81 75 72 77 80 81 81 77 76 82 87 79 80 81 85 90 90 90 92 93 93 93
58 57 57 57 57 57 70 82 78 81 72 85 85 86 87 88 80 88 93 81 80 74 79 77 70 80 84 83 79 77 74 74 80 84 80 78 78 85 88 89 91 91 92 89 90
57 57 57 57 56 67 86 83 90 86 74 81 84 84 84 87 80 82 87 84 78 75 76 73 78 83 80 78 74 75 72 73 74 80 80 77 76 79 86 89 88 87 87 88 87
56 57 57 55 65 88 86 91 92 88 69 73 79 84 86 86 78 87 90 84 80 75 77 77 83 79 76 74 77 68 79 76 75 73 67 78 64 76 82 80 82 84 86 86 86
56 57 56 53 78 85 86 93 91 83 57 75 78 92 87 81 81 82 89 84 75 76 76 73 77 76 74 75 79 72 80 77 74 72 71 73 67 76 81 76 78 81 82 84 86
56 56 56 75 83 91 93 91 84 65 55 69 77 75 78 79 78 82 81 85 85 77 78 77 85 81 78 81 80 80 76 75 75 72 60 69 70 71 77 78 78 79 80 81 84
56 55 58 80 81 93 92 84 66 62 72 66 67 73 73 71 74 74 73 73 70 64 65 74 75 80 77 73 78 75 69 58 56 58 57 72 69 72 73 79 79 77 78 81 83
54 53 66 86 93 91 85 74 58 66 66 72 70 71 66 70 72 70 70 69 74 71 67 63 60 74 77 72 70 71 68 59 48 52 60 70 63 64 74 77 78 79 79 80 81
52 86 85 89 91 87 76 66 64 65 67 66 69 64 66 68 67 69 69 68 70 70 60 63 59 70 72 73 73 68 62 70 58 63 58 64 65 69 73 72 74 75 76 76 78
67 80 87 89 89 82 73 56 66 69 69 68 60 64 60 64 63 66 65 68 66 69 71 65 56 69 70 72 73 69 73 58 60 45 43 55 54 51 61 67 72 72 74 74 77
68 76 85 90 88 78 69 66 66 71 69 63 62 60 62 60 61 61 62 66 66 66 70 66 60 61 67 64 64 65 63 64 62 55 47 46 51 59 59 54 62 70 71 73 75
74 71 86 88 74 76 70 65 54 67 69 66 65 63 60 61 59 59 59 64 67 67 60 66 58 53 58 66 68 67 63 60 49 50 55 56 55 67 62 64 63 67 70 72 74
69 75 86 83 67 69 66 65 66 64 64 63 62 63 64 59 53 59 60 66 66 64 59 62 56 49 55 62 66 60 64 64 60 56 49 44 49 65 67 66 68 68 70 71 72
69 68 77 79 74 64 61 62 61 66 64 64 63 63 61 59 63 56 60 64 64 65 58 60 55 52 47 43 52 53 57 61 59 49 52 53 55 56 60 63 66 67 69 70 71
74 66 65 65 68 64 63 62 59 58 64 64 61 60 58 53 58 58 62 62 65 63 61 60 49 55 57 60 58 57 57 59 56 57 51 56 51 55 58 64 66 67 68 69 70
65 64 72 66 62 61 54 61 58 59 59 59 56 61 59 55 57 54 58 58 56 61 59 60 50 54 50 59 59 54 57 58 58 58 57 58 57 67 70 68 66 67 67 67 68
72 71 65 58 63 61 63 59 58 58 61 62 60 58 57 59 62 63 63 62 61 57 54 52 51 49 44 54 53 48 56 57 58 60 58 53 60 66 64 64 65 66 67 67 67

GFSSW_sfc_temp_282.txt.gz
Temp
61 61 61 61 61 61 61 61 61 61 62 62 62 62 62 63 62 74 77 87 86 74 75 94 92 93 96 92 96 97 80 76 81 84 89 98 93 98 102 97 98 100 86 76 76
61 61 61 61 61 60 60 60 60 61 61 62 62 62 62 62 71 77 87 76 76 75 90 89 87 91 88 89 91 87 79 80 91 93 90 95 94 95 95 94 94 97 92 88 88
61 61 61 61 60 60 60 60 60 60 61 61 61 61 62 64 74 87 76 76 76 80 93 96 95 92 85 90 90 88 79 88 91 94 94 92 92 97 92 88 94 96 93 95 97
60 61 61 60 60 59 59 59 60 60 61 61 61 61 61 72 72 88 76 75 75 91 91 92 92 86 83 82 91 83 89 90 92 94 92 88 93 91 93 93 100 102 102 97 93
59 60 60 60 59 59 59 59 59 60 60 60 61 61 67 76 82 86 76 78 89 89 89 89 88 87 82 86 89 86 88 91 93 93 92 93 89 89 91 97 100 101 101 99 99
59 59 59 59 59 59 59 59 59 59 59 60 60 60 71 72 99 94 94 90 92 90 90 93 90 92 87 86 86 90 90 90 92 91 91 87 88 89 91 97 97 98 98 99 100
59 59 59 59 59 59 59 58 58 58 60 61 61 70 77 80 99 100 97 94 96 93 90 95 96 91 90 84 90 88 82 86 88 89 88 90 82 84 93 96 94 95 97 98 101
58 58 58 58 59 59 59 59 58 61 61 61 62 75 75 98 100 97 98 95 98 99 96 98 98 91 87 89 86 82 82 74 85 88 89 87 74 88 94 93 92 93 95 97 99
58 58 58 58 58 59 58 58 61 63 61 62 70 75 79 84 90 96 98 92 94 95 96 96 92 84 84 77 74 78 70 74 79 90 88 84 77 88 94 92 90 92 93 96 97
58 57 57 58 58 58 57 58 63 61 66 77 82 76 84 85 92 94 97 95 89 88 86 84 82 76 77 74 63 70 73 76 76 85 86 81 80 86 92 92 89 90 93 95 93
58 57 57 57 58 57 63 76 77 73 78 80 83 83 87 93 95 91 94 90 89 83 74 81 73 68 74 77 78 77 75 75 81 88 82 79 79 84 89 90 89 90 90 92 88
57 57 57 57 57 57 66 83 81 84 72 87 87 88 90 91 82 89 94 81 80 72 78 74 69 77 82 81 78 77 73 73 80 84 83 79 77 83 87 88 89 90 90 92 89
57 57 57 57 56 67 87 86 93 91 74 82 87 86 86 89 82 84 89 84 77 73 75 71 76 83 79 76 75 75 72 72 73 79 83 79 73 77 85 89 90 91 89 90 88
56 57 57 55 66 88 87 93 95 91 66 75 80 85 89 89 79 90 92 85 79 72 76 75 81 78 77 74 76 68 79 77 74 71 65 78 60 73 80 82 85 86 86 86 87
56 57 56 55 72 84 89 95 93 84 54 77 81 93 90 82 82 84 91 84 73 74 76 71 75 75 73 75 79 72 80 76 75 71 68 70 66 72 81 77 79 83 85 86 87
56 56 55 77 75 88 95 93 86 64 55 72 80 77 79 83 81 84 84 87 84 76 77 75 83 80 78 81 81 81 76 75 73 70 57 66 66 68 74 79 79 82 83 84 84
56 55 57 77 82 94 93 84 64 58 75 69 70 75 74 74 76 78 75 73 70 64 65 73 74 80 83 74 78 76 68 55 53 55 54 69 65 69 76 83 82 79 79 82 84
54 53 70 83 92 92 85 72 56 70 70 76 73 73 69 73 72 74 71 68 76 73 65 60 58 68 70 74 70 70 66 56 45 49 56 68 54 61 75 80 80 79 79 82 83
53 82 83 88 93 89 75 62 64 67 71 69 71 67 68 71 70 70 69 68 72 70 58 56 59 70 72 70 73 67 61 70 56 56 52 59 62 68 73 73 74 75 76 77 78
62 75 84 92 92 82 70 61 69 73 72 71 61 67 61 66 65 65 65 71 69 71 71 63 52 67 70 72 70 66 69 57 55 39 41 52 50 45 50 56 57 53 68 74 77
65 75 86 92 89 76 65 68 70 75 71 65 64 62 63 62 64 62 63 69 68 66 69 65 58 59 66 63 62 64 61 63 63 49 42 45 51 57 54 51 51 54 55 65 74
71 70 88 90 71 75 70 68 55 71 73 68 68 65 62 63 60 60 60 65 68 67 59 64 57 50 57 63 62 65 61 57 50 51 52 49 50 59 62 58 54 54 57 66 72
66 74 88 84 65 69 70 69 69 67 67 66 64 67 66 61 55 61 62 69 68 64 58 59 54 45 51 60 63 54 58 59 60 57 47 41 41 63 62 63 65 61 60 66 70
67 68 77 80 76 66 64 65 63 70 66 67 65 66 62 59 64 59 61 67 68 66 60 60 53 49 42 47 48 44 48 60 58 48 53 54 56 51 56 61 63 65 68 69 70
71 68 68 63 67 65 66 65 62 62 67 67 62 63 60 54 57 58 63 65 67 62 63 59 48 53 55 58 56 54 56 58 55 57 51 56 56 59 61 62 65 67 67 68 69
65 64 68 65 68 64 58 62 61 63 62 61 60 63 62 56 57 54 59 59 57 63 59 60 48 53 50 57 59 56 60 59 59 59 59 59 58 65 68 68 66 67 68 68 68
72 72 66 60 65 63 64 63 61 63 64 65 62 60 58 60 62 63 63 62 60 57 55 54 48 46 42 54 52 47 56 58 59 61 60 54 61 66 65 65 65 66 67 67 68

GFSSW_sfc_temp_285.txt.gz
Temp
61 61 61 61 61 60 60 60 60 60 61 61 62 62 62 62 61 62 62 74 76 76 73 83 82 81 81 75 78 76 59 55 63 67 72 79 77 84 88 87 90 86 81 83 81
61 61 61 61 60 60 60 60 60 60 60 61 61 61 61 61 60 64 75 77 75 75 79 77 76 78 69 71 72 67 56 62 74 76 73 77 78 82 84 83 83 82 81 81 83
61 61 61 61 61 60 60 60 60 60 60 61 61 61 61 60 60 74 75 76 75 76 81 81 81 77 67 70 71 69 63 72 78 80 79 78 79 82 81 74 82 78 78 79 81
60 60 60 60 60 60 60 60 60 60 60 60 60 61 61 61 58 75 76 75 76 80 80 77 75 67 64 65 73 64 74 76 80 82 78 76 79 80 78 79 88 85 83 81 79
59 60 60 59 59 59 59 59 60 60 60 60 60 61 58 60 66 76 76 76 78 78 76 74 70 69 63 69 72 67 74 78 81 80 75 80 77 77 78 86 90 88 88 84 85
59 59 59 59 59 59 59 59 58 58 59 60 60 60 59 58 84 82 81 79 81 77 77 76 75 77 72 70 65 74 74 75 77 76 74 73 76 74 80 86 87 87 85 84 84
58 58 59 59 59 59 59 58 58 58 60 61 61 64 66 66 88 83 86 82 83 84 79 81 82 74 74 69 75 75 68 73 75 75 72 76 70 73 81 85 82 85 85 85 84
58 58 58 58 59 59 59 58 59 62 62 61 62 64 61 85 84 85 86 85 88 87 85 86 84 76 69 74 73 66 64 55 70 76 78 73 62 76 81 80 80 82 84 86 80
58 57 58 58 59 59 58 58 60 64 62 62 60 60 64 81 85 88 85 85 87 87 83 94 79 70 72 62 56 58 54 59 67 76 76 73 65 76 81 78 78 79 81 82 79
58 57 57 58 58 58 57 58 63 61 62 70 74 63 74 80 87 89 87 89 83 80 78 74 67 60 59 54 46 53 55 60 64 74 73 69 66 74 79 78 77 78 78 78 78
58 57 57 57 58 57 56 64 63 61 61 68 72 76 84 89 90 85 88 83 82 74 62 69 57 53 60 63 66 66 64 63 69 76 71 67 68 72 76 71 73 76 77 76 77
57 57 57 57 57 57 53 65 72 73 63 79 81 83 88 85 79 84 88 72 71 62 67 61 55 66 72 71 69 66 63 62 70 75 68 66 65 72 73 70 74 76 76 75 73
56 56 57 56 56 60 69 78 83 79 60 75 82 82 79 81 78 79 82 76 69 63 64 58 65 76 73 69 67 65 61 62 62 70 69 65 60 65 72 74 74 71 76 75 74
56 56 56 55 62 69 74 83 82 78 52 70 75 78 83 81 75 88 86 76 69 63 66 63 71 72 70 68 69 58 70 70 68 61 52 61 47 59 66 69 72 70 73 74 74
56 56 56 55 57 66 78 82 78 71 43 74 76 84 82 74 76 79 86 76 67 67 66 62 66 66 66 68 73 66 72 68 66 58 51 59 48 55 63 64 68 68 72 72 74
56 56 55 64 58 71 80 80 73 52 46 69 78 73 71 76 78 80 79 79 77 67 68 66 75 72 70 74 74 76 70 67 60 54 45 52 52 54 60 63 68 70 73 73 73
55 55 53 67 65 80 80 70 50 46 71 66 68 72 69 69 72 73 71 63 57 53 53 64 65 69 72 63 66 66 56 48 45 40 41 57 52 52 51 53 72 70 70 72 73
54 53 58 73 76 79 71 57 43 65 64 73 70 69 64 69 67 69 65 59 66 61 53 49 47 62 69 64 55 59 52 47 36 38 43 54 49 51 58 56 60 56 64 66 64
52 63 68 74 78 73 61 47 52 61 68 65 67 62 63 69 65 64 61 60 63 60 48 47 50 66 69 68 64 58 49 58 47 46 40 46 55 57 57 54 54 53 55 59 62
51 60 69 81 78 69 55 52 61 70 69 67 56 63 54 59 58 58 58 64 63 64 60 53 43 60 65 63 59 52 60 42 44 33 31 42 47 47 50 49 53 51 52 55 59
53 59 73 81 75 61 50 57 67 73 70 62 58 56 57 56 57 55 58 63 63 61 60 53 45 49 58 52 47 50 46 48 46 42 35 31 40 52 52 51 51 51 52 52 54
56 56 75 76 57 58 54 62 59 69 70 67 62 61 57 57 54 54 55 59 65 62 53 51 45 38 47 59 61 52 46 44 36 38 43 38 38 53 53 52 51 51 53 52 53
51 59 75 72 52 53 61 67 69 66 65 63 60 62 60 54 47 56 57 66 64 60 51 50 40 33 40 48 51 43 47 47 46 42 37 34 36 54 57 53 53 52 53 55 56
53 54 62 62 63 56 54 58 60 69 65 65 60 61 56 53 55 51 56 65 65 63 61 56 43 38 31 39 46 46 50 52 47 38 39 39 41 48 51 52 54 54 55 57 58
56 55 57 51 55 56 56 58 58 58 64 62 56 59 54 46 49 49 56 58 62 59 56 49 38 43 47 52 53 51 52 50 47 49 43 49 49 47 50 51 55 61 63 65 65
54 52 56 55 57 57 54 55 58 60 57 56 52 58 55 47 48 44 49 48 47 53 49 50 37 43 42 51 52 48 52 54 53 54 54 53 50 55 56 58 58 60 62 61 62
59 60 54 53 54 54 55 57 59 59 59 63 58 53 51 53 55 53 51 51 50 45 44 43 39 36 32 47 47 37 49 53 52 54 52 44 51 55 54 56 54 54 57 57 57

GFSSW_sfc_temp_288.txt.gz
Temp
61 61 61 61 61 60 61 60 60 60 60 60 61 61 61 61 60 57 59 72 70 73 72 78 76 74 72 68 70 68 55 49 55 58 65 72 73 82 85 84 82 82 80 82 84
61 61 61 61 61 60 60 60 60 60 60 60 60 61 61 61 55 58 71 74 74 74 74 71 69 70 65 64 68 63 52 57 65 65 68 71 71 73 79 77 77 79 81 80 82
60 60 60 60 60 60 60 60 60 60 60 60 60 60 60 59 57 71 76 74 74 76 77 75 71 68 58 60 63 59 58 65 72 73 71 71 74 74 73 71 76 78 80 79 78
60 60 60 60 60 60 59 59 60 60 60 60 60 60 60 56 55 73 76 74 75 76 74 71 67 58 56 58 64 57 69 68 73 76 70 72 74 76 73 74 81 82 83 80 79
59 59 59 59 59 59 59 59 59 59 59 59 59 60 56 57 64 76 76 76 76 76 73 67 61 60 55 61 64 61 69 71 74 71 69 74 74 74 72 83 80 81 82 80 79
58 58 59 59 59 59 59 58 58 58 59 60 59 60 56 56 78 77 76 76 77 72 72 69 69 68 64 63 60 66 65 69 70 69 67 68 73 71 76 81 83 80 78 78 79
58 58 58 58 58 59 59 58 58 59 61 62 60 62 59 65 80 76 77 74 78 78 73 74 72 69 67 65 65 65 64 66 68 68 68 69 67 69 78 78 79 80 78 79 80
57 57 57 58 58 59 59 58 58 60 61 61 62 59 59 78 75 76 77 79 81 80 79 80 76 71 63 65 67 62 56 51 64 69 73 69 59 73 77 74 76 78 79 75 73
57 57 57 58 58 58 58 58 59 62 62 62 57 57 62 79 80 85 81 79 80 81 79 88 74 65 68 56 52 53 48 53 60 66 68 67 64 71 76 73 74 74 73 74 71
57 57 57 57 58 57 57 58 61 61 62 67 69 60 68 75 82 84 81 82 78 76 74 72 62 57 54 51 44 48 50 52 55 64 65 63 62 74 76 73 73 73 71 71 73
57 57 56 57 57 57 54 59 62 60 60 62 67 69 76 83 85 80 83 79 77 71 58 63 56 50 56 57 60 58 55 55 63 70 62 66 62 67 73 69 68 67 71 71 72
57 57 57 56 57 56 52 62 67 71 60 72 73 74 81 83 74 78 82 70 67 58 60 57 51 62 64 64 61 59 56 55 62 68 63 62 63 66 67 67 71 67 71 72 70
56 56 56 56 56 59 63 69 74 73 56 69 76 75 76 78 74 75 78 70 65 57 59 53 61 69 66 63 61 61 55 58 58 66 63 60 57 62 69 70 69 69 70 71 71
56 56 56 55 61 59 66 73 72 70 50 63 70 74 77 74 70 84 81 74 63 59 59 57 65 66 63 61 62 52 65 64 63 56 49 59 47 51 63 64 65 64 69 67 69
56 56 56 54 51 60 72 70 70 67 42 69 70 80 75 69 73 75 83 72 64 65 61 58 61 60 60 62 66 60 67 63 64 55 49 52 46 52 57 54 52 63 67 68 69
56 56 55 55 50 62 67 67 67 52 45 65 72 68 67 70 73 74 73 74 71 62 61 61 69 65 61 66 66 66 60 58 55 49 43 49 48 42 43 47 50 63 66 67 66
56 55 53 59 61 65 65 63 49 44 66 62 64 67 63 63 67 68 64 60 53 48 47 57 59 64 68 58 62 57 48 38 38 40 39 50 47 41 49 50 51 53 55 59 62
54 53 53 62 59 64 62 55 41 60 59 67 65 65 59 64 63 65 60 54 59 55 47 44 44 57 64 57 51 52 47 38 28 31 38 51 43 42 53 55 54 54 55 56 60
52 53 57 65 65 64 56 44 46 56 63 61 62 57 57 61 60 59 56 55 56 55 45 42 46 62 64 62 57 50 43 52 42 43 36 42 46 50 52 52 53 53 53 54 58
45 51 58 70 67 61 51 47 55 65 65 62 51 56 49 53 53 52 53 58 57 59 54 47 40 56 60 60 56 51 54 39 35 28 30 38 42 42 46 47 50 51 52 53 54
50 55 67 69 66 55 45 49 61 67 66 59 53 52 52 51 52 50 53 58 59 58 55 47 43 45 53 49 47 45 42 43 40 37 32 31 36 46 47 48 48 49 51 52 54
45 51 67 67 54 48 47 58 59 64 66 62 59 56 53 52 50 50 51 55 61 59 49 48 41 35 42 51 55 47 42 41 35 34 36 37 37 51 49 49 51 50 51 52 53
41 46 64 64 45 45 53 61 63 62 60 58 56 57 55 49 44 52 54 62 61 56 50 47 37 29 35 43 48 45 46 45 42 39 34 32 37 50 52 50 52 51 52 53 53
45 46 52 52 51 47 48 52 54 64 61 61 56 56 51 48 49 47 51 59 60 59 60 53 39 36 29 36 42 41 47 47 41 35 37 37 40 47 48 48 49 51 53 53 54
47 46 47 42 47 47 45 51 52 53 59 57 52 54 49 41 46 45 49 52 57 56 51 45 36 40 43 47 48 47 47 49 43 45 40 46 44 50 51 49 49 53 53 56 57
45 44 46 44 48 48 47 48 53 55 53 51 48 54 50 42 43 41 45 43 45 49 44 43 36 39 38 47 47 44 48 49 49 51 48 49 47 55 53 53 53 57 56 57 58
46 48 45 44 45 44 45 50 54 55 55 57 53 49 47 48 50 50 49 49 49 44 42 39 36 32 29 42 42 35 44 49 50 47 47 42 49 51 49 50 51 52 54 54 54

GFSSW_sfc_temp_291.txt.gz
Temp
61 61 61 61 61 60 60 60 60 60 60 60 60 60 61 61 60 55 58 71 69 72 73 72 72 70 68 65 66 63 53 45 50 55 64 68 68 75 80 76 78 80 76 76 79
60 61 60 60 60 60 60 59 60 60 60 61 60 60 60 60 52 56 71 73 72 74 71 68 65 67 62 61 63 59 50 54 62 62 65 68 65 72 76 76 76 78 79 79 80
60 60 60 60 60 60 60 60 60 60 60 60 60 60 60 58 55 70 76 73 73 74 73 71 69 66 57 58 58 55 55 60 65 68 65 68 70 72 70 65 73 76 77 77 77
60 60 60 60 60 60 59 59 60 60 60 60 59 59 60 54 54 70 76 74 74 73 71 69 64 57 53 54 58 53 64 63 67 67 64 66 71 72 72 75 80 80 79 77 76
59 59 59 59 59 59 59 59 59 59 59 59 59 59 55 56 64 72 76 75 74 73 70 65 60 58 52 56 59 56 63 65 68 67 65 67 70 70 71 78 79 78 80 76 76
58 58 58 58 58 59 58 58 58 58 59 60 60 60 56 55 74 74 74 72 73 69 69 66 64 66 58 57 58 62 63 65 65 66 63 63 68 70 75 78 77 77 78 76 76
58 57 58 58 58 58 58 58 58 58 61 61 60 61 59 66 75 74 74 70 73 74 69 69 70 65 62 60 61 61 59 62 62 61 64 65 65 65 75 72 76 75 75 76 74
57 57 57 58 58 58 58 58 58 59 61 61 61 58 59 74 72 71 71 74 76 75 74 75 73 65 60 62 63 58 54 49 60 65 68 65 56 69 73 69 73 75 72 76 71
57 57 57 57 58 58 58 57 59 61 62 62 57 57 63 77 75 79 77 75 76 75 74 85 70 61 63 53 50 51 46 48 57 63 64 61 60 70 73 70 71 72 69 70 66
57 56 56 57 57 57 56 57 61 60 61 65 67 59 67 72 79 80 78 79 76 73 71 69 59 55 51 50 42 46 47 48 51 60 62 57 59 66 71 68 70 65 65 66 67
57 56 56 56 57 56 53 56 60 59 58 60 64 66 71 79 82 76 79 76 73 68 56 59 54 48 54 55 56 54 51 51 59 66 58 59 57 65 67 64 65 64 64 65 67
56 56 56 56 56 56 52 62 63 65 59 68 68 69 75 76 70 74 78 68 65 56 58 55 49 60 60 60 57 55 51 52 58 63 58 59 59 63 65 66 63 63 65 65 63
56 56 56 56 55 57 59 65 69 65 55 66 71 70 72 74 70 72 75 67 61 55 54 51 59 65 61 59 56 53 51 53 54 62 59 57 54 58 64 62 63 65 66 66 65
56 56 56 54 60 55 64 67 65 66 49 62 66 72 73 71 67 79 78 71 60 57 56 54 61 61 59 57 56 48 60 59 57 52 46 55 46 51 52 54 56 56 61 63 65
56 56 56 54 50 59 67 62 63 66 40 65 67 76 72 66 68 72 76 69 60 61 59 56 58 58 56 58 61 54 60 58 58 51 45 47 44 48 48 50 49 54 60 61 64
56 56 55 52 47 59 62 62 66 51 42 62 68 65 64 67 70 70 70 71 67 59 58 57 63 61 59 62 61 63 56 52 49 45 40 45 45 43 43 46 49 52 57 60 61
55 55 52 57 61 60 61 62 49 44 62 58 60 64 59 60 64 65 59 54 50 46 45 53 54 59 63 55 58 56 45 35 35 35 36 46 43 40 51 51 51 52 54 59 61
53 52 53 59 55 61 60 55 39 55 55 63 62 61 56 59 58 60 57 50 56 52 44 42 42 53 61 53 48 47 44 36 29 30 34 46 39 41 52 54 54 54 55 57 56
51 53 56 61 60 59 56 43 44 52 59 58 59 53 52 58 56 55 52 50 52 50 44 41 43 58 59 58 53 47 38 43 37 36 32 38 42 49 54 52 52 52 53 53 55
45 50 59 64 63 59 50 46 52 61 61 59 49 53 46 50 50 50 49 54 54 56 52 47 39 52 56 57 54 47 50 37 34 25 25 33 37 39 47 47 49 49 50 52 54
49 56 65 63 62 54 45 47 57 64 62 56 51 49 49 48 48 47 50 54 57 55 52 46 41 43 49 45 43 44 40 39 36 36 31 27 32 47 47 49 47 48 51 52 52
45 51 65 62 52 43 45 52 57 61 63 60 55 52 49 49 47 47 48 53 58 56 47 45 39 34 39 48 51 46 41 39 30 29 36 33 33 49 50 50 50 50 52 52 54
42 43 60 61 43 43 50 57 59 59 57 56 53 55 53 47 42 48 50 57 57 53 47 46 36 30 35 42 46 42 44 42 38 35 33 32 33 50 51 51 52 50 51 52 53
46 45 49 49 46 44 44 49 52 60 58 57 54 54 49 45 47 45 48 55 57 55 58 51 37 36 30 36 39 38 44 44 38 31 32 34 39 46 48 49 50 51 52 52 54
45 43 43 40 44 43 42 48 50 51 55 55 49 51 47 39 42 42 46 49 54 54 48 44 36 38 41 44 44 44 43 45 38 41 36 42 41 49 51 49 52 52 53 53 54
43 41 43 41 43 44 44 45 48 52 51 50 47 52 48 42 45 42 43 41 44 46 41 40 35 37 37 45 45 41 44 45 45 45 43 45 44 55 53 55 51 53 53 53 54
42 43 43 42 41 41 42 46 49 49 53 55 52 48 45 48 50 49 48 47 47 44 40 38 34 31 29 40 39 33 40 43 43 43 41 38 43 46 48 50 52 54 54 53 53

GFSSW_sfc_temp_297.txt.gz
Temp
61 61 60 60 60 60 61 60 60 61 61 60 61 61 60 60 60 63 72 79 77 72 74 83 83 82 83 80 80 77 73 69 69 70 75 84 79 88 88 85 86 88 87 85 84
60 60 60 60 60 60 60 60 60 61 60 60 60 60 59 59 62 69 78 73 73 74 83 82 78 80 79 78 79 78 73 70 74 76 78 81 78 82 84 84 85 87 84 83 84
60 60 60 60 60 60 59 60 60 60 61 60 59 60 59 61 71 80 76 73 73 76 83 83 82 80 76 78 75 71 73 74 76 78 78 80 83 83 83 83 88 88 85 82 82
59 60 59 59 59 59 59 59 60 60 60 60 59 60 59 62 68 81 75 74 74 80 83 81 80 76 74 73 75 73 74 75 79 78 77 79 81 83 82 88 90 88 88 84 82
59 59 59 59 59 59 59 59 59 59 59 60 59 60 61 73 78 79 75 75 80 82 80 78 77 75 73 74 74 73 75 76 79 78 77 77 79 80 84 88 89 88 85 85 86
58 58 58 58 58 58 58 58 58 58 58 60 60 60 67 71 83 81 80 81 82 82 78 80 78 78 75 73 74 75 74 76 76 78 77 77 78 77 85 86 87 87 87 87 86
58 58 58 58 58 58 58 58 57 58 59 61 61 63 71 76 82 82 82 82 82 82 79 80 81 79 76 73 74 74 72 74 75 76 75 77 76 77 86 83 82 85 87 86 86
58 57 57 57 58 58 58 58 58 59 61 62 62 65 75 82 82 81 82 81 81 83 83 82 82 79 76 75 72 69 69 68 74 74 75 77 69 80 84 80 82 84 85 84 86
58 57 57 57 57 58 57 57 60 62 62 62 65 67 75 76 82 83 84 83 81 82 83 83 80 73 74 70 68 68 63 63 68 74 73 73 69 80 84 79 78 80 81 83 86
58 57 56 56 57 57 56 58 61 63 64 67 70 72 82 78 82 83 83 84 81 80 78 78 74 72 71 71 59 59 61 63 62 71 72 70 70 78 79 75 73 74 76 79 82
58 57 56 56 56 56 59 68 73 72 74 71 72 72 75 83 84 83 85 83 81 78 70 70 70 64 65 66 66 64 61 60 67 70 67 70 69 75 74 74 71 71 72 75 77
57 57 57 56 56 56 61 73 71 72 68 73 72 73 76 79 77 81 86 78 74 67 69 69 63 67 68 66 64 62 61 62 67 69 67 70 69 76 72 68 67 67 69 71 75
56 56 56 56 55 63 73 72 73 73 68 72 75 75 78 80 76 78 82 76 72 67 66 65 66 69 67 65 64 62 60 60 60 66 70 67 68 69 69 69 69 69 67 66 69
56 56 55 54 64 66 73 71 71 72 65 67 74 78 80 80 74 81 82 78 71 67 66 66 68 66 65 62 64 59 64 63 62 62 57 66 56 65 65 65 65 66 64 64 67
56 56 55 55 67 73 71 70 73 73 50 69 73 84 79 76 74 75 79 78 69 67 68 61 63 63 62 61 65 60 65 64 63 61 59 62 57 64 62 66 61 63 63 60 65
55 55 54 61 64 70 69 69 74 62 48 65 72 70 72 71 71 74 74 77 73 67 67 63 69 66 64 65 65 65 63 62 58 59 52 54 54 60 56 53 58 61 61 58 60
55 55 59 63 71 69 68 73 61 54 65 61 63 66 65 64 66 66 63 63 63 59 57 60 61 65 66 62 64 64 58 52 51 52 51 54 54 56 55 56 57 56 57 55 56
53 54 58 68 68 65 72 67 52 57 59 66 64 64 60 62 62 63 61 59 62 60 57 54 51 59 64 61 57 56 55 51 40 45 50 56 50 57 56 58 60 59 56 55 54
52 66 70 73 68 68 70 56 55 58 63 62 62 58 57 60 61 61 58 58 59 60 55 53 51 61 61 62 60 55 54 54 47 46 44 52 53 57 56 57 57 57 57 52 53
62 67 72 70 67 70 64 51 59 64 65 64 56 58 54 56 57 58 56 60 59 60 61 55 49 56 58 62 61 57 57 48 49 36 35 46 46 49 53 55 56 55 55 54 53
63 68 74 69 70 66 56 56 60 67 67 62 58 55 55 55 56 55 54 59 61 59 62 57 53 52 56 53 52 53 52 49 49 46 37 34 44 56 56 57 56 55 56 57 54
60 63 72 69 62 56 57 56 56 63 67 64 62 59 56 56 54 54 54 56 60 62 56 55 52 48 49 54 56 54 52 50 44 40 43 41 42 60 59 59 58 56 57 58 58
57 57 69 69 54 54 56 58 60 60 61 61 59 60 60 56 51 54 55 60 60 60 56 56 50 45 46 51 54 50 52 51 48 46 38 36 43 57 58 58 59 58 59 60 58
58 57 60 58 55 52 50 52 55 62 61 60 59 60 57 55 56 53 55 58 59 59 57 58 51 49 44 48 52 47 50 52 50 42 44 44 47 54 57 59 60 58 61 62 59
55 50 50 51 53 51 51 51 52 52 59 60 57 58 56 51 53 52 54 56 58 57 55 55 48 49 51 51 51 51 51 51 47 49 43 48 49 55 59 60 62 63 62 62 60
55 54 52 51 48 51 48 49 50 51 53 55 54 56 56 53 55 52 54 53 53 55 54 50 48 47 46 50 51 47 51 51 51 51 50 50 49 61 62 62 61 62 63 60 58
51 51 53 46 49 51 51 49 50 52 56 57 56 55 53 56 59 60 60 58 58 54 52 50 48 43 39 44 45 41 49 50 51 53 52 47 56 58 57 57 57 60 62 60 59